COSMOS 1275 DEB

Satellite information

Favourite Embed

Satellite Type and Status

DEBRISIN ORBIT

Key statistics

Satellite COSMOS 1275 DEB at a glance.

Uptime

16263

Days in orbit

Revolutions

≈ 14.0

Per day

Orbit

LEO

Low Earth Orbit

Inclination

82.9

Latest

Satellite identification and parameters

Extended collection of information and parameters for COSMOS 1275 DEB.

Object identification

Identified? True

Debris? True

Object name: COSMOS 1275 DEB

International designator: 1981-053ER

Object number (NORAD): 13019

Object ID (CCSDS): 13019

Country: COMMONWEALTH OF INDEPENDENT STATES (CIS)

Current information (Y/N): Y

RCS size: SMALL

Orbital parameters

Period: 102.752 minutes

Inclination: 82.9398 deg

SMA: 7266.975 km

Apoapsis: 937.998 km

Periapsis: 839.682 km

RAAN: 233.58 deg

Eccentricy: 0.00676458

Argument of periapsis: 129.9398 deg

Mean anomaly: 25.2333 deg

Mean motion: 14.0143279 rev/day

Mean motion (dot): 0.00002679 rev/day2

B* drag term: 0.0017298305 1/REarth

Two-line elements (TLE)

Creation date: Dec. 12, 2025, 10:14 a.m.

Reference frame: TEME

Reference center: EARTH

Epoch: Dec. 12, 2025, 4:26 a.m. UTC

TLE line 0: 0 COSMOS 1275 DEB

TLE line 1: 1 13019U 81053ER 25346.18490785 .00002679 00000-0 17298-2 0 9996

TLE line 2: 2 13019 82.9398 233.5800 0067646 129.9398 25.2333 14.01432790220199

Live tracking on map

Real-time ground track for satellite COSMOS 1275 DEB.

In-orbit conjunctions

A list of the most updated potential collisions computed for object COSMOS 1275 DEB.

Target Orbit TCA Probability of collision Miss distance Type
COSMOS 1375 DEB LEO 2025-11-10 01:57:49 0.0001013982 290.0 (m) DEBRIS
CZ-6A DEB LEO 2025-10-20 01:05:00 0.0004048286 228.0 (m) DEBRIS
THORAD AGENA D DEB SSO 2025-02-13 17:05:38 0.000109091 238.0 (m) DEBRIS
NOAA 16 DEB SSO 2024-11-13 23:00:12 0.0001665659 336.0 (m) DEBRIS
ELECTRON KICK STAGE R/B SSO 2024-09-02 01:37:37 0.000103238 674.0 (m) ROCKET BODY

Associated space launch

Navigation satellite providing location information for the Tsiklon-B navigation system

COSMOS 1275 DEB was lifted into orbit during the mission ‘Kosmos-3M | Parus 27’, on board a Kosmos-3M space rocket.

The launch took place on June 4, 1981, 3:41 p.m. from 132/2.

For more information about the launch, click the button.

Launch to space Kosmos-3M | Parus 27
Kosmos-3M | Parus 27

Agency: N/A

Status: Launch Successful

Launch date: June 4, 1981, 3:41 p.m. UTC

Rocket: Kosmos-3M

Launch pad: 132/2

Location: Plesetsk Cosmodrome, Russian Federation

...

Latest news about this satellite

There are no fresh news available about this satellite. Check back as we update our databases every day.


Newsletter sign-up

Weekly statistics, charts and insights to help you stay on top of the space industry.